Location: Izdebno
(52.6670°N, 16.2170°E)
Time: 23:19:12
(UTC+02:00)

Vanguard 2 Rocket - Pass Details

Date: 27 February 2024
Orbit: 555 x 3307 km, 32.9° (Epoch: 21 April)

Event Time Altitude Azimuth Distance (km) Brightness Sun altitude
Rises 19:10:52 0° 263° (W) 5,714 12.5 -16.1°
Reaches altitude 10° 19:15:36 10° 249° (WSW) 5,135 11.6 -16.8°
Maximum altitude 19:25:56 21° 208° (SSW) 4,927 10.8 -18.4°
Drops below altitude 10° 19:38:23 10° 169° (SSE) 6,237 10.9 -20.2°
Sets 19:45:13 0° 156° (SSE) 7,266 11.1 -21.2°
